This is the latest recevied weather packets stored in our database for station/object WD9U. If no packets are shown the sender has not sent any weather packets the latest 10 day(s).
| Time | Temp. | Humidity | Pressure | Rain* | Wind** | Luminosity | Snow |
|---|---|---|---|---|---|---|---|
| 1777681515 | 9.44° C | 33% | 1019.4 hPa | 0 mm | - | 54 W/m² | - |
| 1777681155 | 9.44° C | 33% | 1019.4 hPa | 0 mm | - | 61 W/m² | - |
| 1777680795 | 9.44° C | 33% | 1019.3 hPa | 0 mm | - | 58 W/m² | - |
| 1777680435 | 9.44° C | 33% | 1019.3 hPa | 0 mm | - | 60 W/m² | - |
| 1777680317 | 9.44° C | 33% | 1019.3 hPa | 0 mm | - | 50 W/m² | - |
| 1777680075 | 9.44° C | 33% | 1019.4 hPa | 0 mm | - | 53 W/m² | - |
| 1777679715 | 10° C | 31% | 1019.3 hPa | 0 mm | - | 63 W/m² | - |
| 1777679355 | 10.56° C | 32% | 1019.3 hPa | 0 mm | - | 196 W/m² | - |
| 1777679117 | 11.11° C | 31% | 1019.4 hPa | 0 mm | - | 212 W/m² | - |
| 1777678994 | 11.11° C | 32% | 1019.3 hPa | 0 mm | - | 218 W/m² | - |
| 1777678633 | 10.56° C | 33% | 1019.3 hPa | 0 mm | - | 222 W/m² | - |
| 1777678273 | 10.56° C | 31% | 1019.4 hPa | 0 mm | - | 237 W/m² | - |
| 1777677912 | 10.56° C | 32% | 1019.5 hPa | 0 mm | - | 253 W/m² | - |
| 1777677553 | 10.56° C | 33% | 1019.5 hPa | 0 mm | - | 269 W/m² | - |
| 1777677193 | 10.56° C | 30% | 1019.4 hPa | 0 mm | - | 288 W/m² | - |
| 1777676832 | 11.11° C | 31% | 1019.5 hPa | 0 mm | - | 304 W/m² | - |
| 1777676714 | 11.11° C | 33% | 1019.5 hPa | 0 mm | - | 310 W/m² | - |
| 1777676470 | 10.56° C | 33% | 1019.4 hPa | 0 mm | - | 322 W/m² | - |
| 1777676110 | 10° C | 33% | 1019.5 hPa | 0 mm | - | 330 W/m² | - |
| 1777675750 | 9.44° C | 33% | 1019.5 hPa | 0 mm | - | 358 W/m² | - |
| 1777675513 | 9.44° C | 33% | 1019.5 hPa | 0 mm | - | 371 W/m² | - |
| 1777675390 | 8.89° C | 33% | 1019.5 hPa | 0 mm | - | 377 W/m² | - |
| 1777675029 | 8.89° C | 33% | 1019.6 hPa | 0 mm | - | 394 W/m² | - |
| 1777674670 | 9.44° C | 32% | 1019.5 hPa | 0 mm | - | 408 W/m² | - |
| 1777674310 | 7.22° C | 33% | 1020.2 hPa | 0 mm | - | 425 W/m² | - |
* Rain latest hour (hover to see other rain measurements)
** Current wind speed in m/s (hover to see current wind gust speed)